sat.trackr.live / text

‹ back to catalog

STARLINK-36251

NORAD 68093 · 2026-042AA

PAYLOAD ACTIVE UNKNOWN

§ Identity

Operator
Country
US
Launch date
2026-03-04
Launch site
AFETR
Launch vehicle
Mass (kg)
RCS (m²)

Purposes: comms

External: N2YO · Heavens-Above · Gunter

§ Orbital elements

Epoch: 2026-05-25T02:32:03.788160Z

Period
93.85 min
Inclination
53.1593°
Eccentricity
0.0001416
Mean motion
15.34401335 rev/d
Perigee alt
461.7 km
Apogee alt
463.7 km
Semi-major
6,840.8 km
B*
6.7948e-4
RAAN
183.1482°
Arg perigee
89.1238°
Mean anomaly
270.9927°
Rev number
1,400

§ Raw data

STARLINK-362511 68093U 26042AA  26145.10559940  .00022651  00000+0  67948-3 0  99932 68093  53.1593 183.1482 0001416  89.1238 270.9927 15.34401335 14004

JSON: /api/v1/satellites/68093 · /tle

For live sub-satellite position, see the globe view (requires WebGL).

§ Visibility from observer

Set your observer location to see the next 7 days of passes ≥ 10°. The values pass through the URL so the page stays shareable.

No JS? Fill the form by hand. The geolocation button needs JavaScript.